| time (UTC) | temp F | wind direction | speed knots | gust knots | rain 1hr in | rain 24hr in | rain mn in | humidity % | barometer mb |
| 20260905045038 | 73 | 0 | 0.0 | 0.0 | 0.00 | 0.17 | 0.00 | 92 | 1012.2 |
| 20260905044601 | 73 | 0 | 0.0 | 0.0 | 0.00 | 0.17 | 0.00 | 92 | 1012.1 |
| 20260905044038 | 73 | 0 | 0.0 | 0.0 | 0.00 | 0.17 | 0.00 | 92 | 1012.1 |
| 20260905043539 | 73 | 0 | 0.0 | 0.0 | 0.00 | 0.17 | 0.00 | 92 | 1012.1 |
| 20260905043104 | 73 | 0 | 0.0 | 0.0 | 0.00 | 0.17 | 0.00 | 92 | 1012.1 |
| 20260905042537 | 73 | 0 | 0.0 | 0.0 | 0.00 | 0.17 | 0.00 | 92 | 1012.1 |
| 20260905042036 | 73 | 0 | 0.0 | 0.0 | 0.00 | 0.17 | 0.00 | 92 | 1012.3 |
| 20260905041601 | 73 | 0 | 0.0 | 0.0 | 0.00 | 0.17 | 0.00 | 92 | 1012.3 |
| 20260905041038 | 73 | 0 | 0.0 | 0.0 | 0.00 | 0.17 | 0.00 | 92 | 1012.3 |
| 20260905040539 | 73 | 0 | 0.0 | 0.0 | 0.00 | 0.17 | 0.00 | 92 | 1012.5 |
| 20260905040105 | 73 | 0 | 0.0 | 0.0 | 0.00 | 0.17 | 0.00 | 92 | 1012.5 |
| 20260905035538 | 73 | 0 | 0.0 | 0.0 | 0.00 | 0.17 | 0.17 | 92 | 1012.4 |
| 20260905035038 | 73 | 0 | 0.0 | 0.0 | 0.00 | 0.17 | 0.17 | 92 | 1012.4 |
| 20260905034609 | 73 | 0 | 0.0 | 0.0 | 0.00 | 0.17 | 0.17 | 92 | 1012.4 |
| 20260905034041 | 74 | 0 | 0.0 | 0.0 | 0.00 | 0.17 | 0.17 | 92 | 1012.4 |
| 20260905033537 | 74 | 0 | 0.0 | 0.0 | 0.00 | 0.17 | 0.17 | 92 | 1012.2 |
| 20260905033059 | 74 | 0 | 0.0 | 0.0 | 0.00 | 0.17 | 0.17 | 91 | 1012.3 |
| 20260905032536 | 74 | 0 | 0.0 | 0.0 | 0.00 | 0.17 | 0.17 | 91 | 1012.2 |
| 20260905032035 | 74 | 0 | 0.0 | 0.0 | 0.00 | 0.17 | 0.17 | 92 | 1012.3 |
| 20260905031557 | 74 | 0 | 0.0 | 0.0 | 0.00 | 0.17 | 0.17 | 92 | 1012.3 |
| 20260905031035 | 74 | 0 | 0.0 | 0.0 | 0.00 | 0.17 | 0.17 | 92 | 1012.3 |
| 20260905030537 | 74 | 0 | 0.0 | 0.0 | 0.00 | 0.17 | 0.17 | 92 | 1012.4 |
| 20260905030118 | 74 | 0 | 0.0 | 0.0 | 0.00 | 0.17 | 0.17 | 92 | 1012.4 |
| 20260905025537 | 74 | 0 | 0.0 | 0.0 | 0.00 | 0.17 | 0.17 | 92 | 1012.3 |
| 20260905025038 | 74 | 0 | 0.0 | 0.0 | 0.00 | 0.17 | 0.17 | 92 | 1012.3 |
| 20260905024605 | 74 | 0 | 0.0 | 0.0 | 0.00 | 0.17 | 0.17 | 92 | 1012.3 |
| 20260905024036 | 74 | 0 | 0.0 | 0.0 | 0.00 | 0.17 | 0.17 | 91 | 1012.4 |
| 20260905023537 | 74 | 0 | 0.0 | 0.0 | 0.00 | 0.17 | 0.17 | 91 | 1012.4 |
| 20260905023056 | 74 | 0 | 0.0 | 0.0 | 0.00 | 0.17 | 0.17 | 91 | 1012.5 |
| 20260905022538 | 74 | 0 | 0.0 | 0.0 | 0.00 | 0.17 | 0.17 | 91 | 1012.6 |
| 20260905022035 | 74 | 0 | 0.0 | 0.0 | 0.00 | 0.17 | 0.17 | 92 | 1012.5 |
| 20260905021608 | 74 | 0 | 0.0 | 0.0 | 0.00 | 0.17 | 0.17 | 91 | 1012.3 |
| 20260905021037 | 74 | 0 | 0.0 | 0.0 | 0.00 | 0.17 | 0.17 | 91 | 1012.3 |
| 20260905020539 | 75 | 0 | 0.0 | 0.0 | 0.00 | 0.17 | 0.17 | 91 | 1012.4 |
| 20260905020106 | 75 | 0 | 0.0 | 0.0 | 0.00 | 0.17 | 0.17 | 91 | 1012.4 |
| 20260905015537 | 75 | 0 | 0.0 | 0.0 | 0.00 | 0.17 | 0.17 | 91 | 1012.1 |
| 20260905015043 | 75 | 0 | 0.0 | 0.0 | 0.00 | 0.17 | 0.17 | 91 | 1012.0 |
| 20260905014603 | 75 | 0 | 0.0 | 0.0 | 0.00 | 0.17 | 0.17 | 90 | 1012.0 |
| 20260905014035 | 75 | 0 | 0.0 | 0.0 | 0.00 | 0.17 | 0.17 | 90 | 1012.1 |
| 20260905013538 | 75 | 0 | 0.0 | 0.0 | 0.00 | 0.17 | 0.17 | 90 | 1011.9 |
| 20260905013100 | 75 | 0 | 0.0 | 0.0 | 0.00 | 0.17 | 0.17 | 89 | 1011.9 |
| 20260905012540 | 75 | 0 | 0.0 | 0.0 | 0.00 | 0.17 | 0.17 | 89 | 1011.9 |
| 20260905012038 | 76 | 0 | 0.0 | 0.0 | 0.00 | 0.17 | 0.17 | 88 | 1011.9 |
| 20260905011607 | 76 | 0 | 0.0 | 0.0 | 0.00 | 0.17 | 0.17 | 88 | 1011.9 |
| 20260905011037 | 76 | 0 | 0.0 | 0.0 | 0.00 | 0.17 | 0.17 | 87 | 1011.9 |
| 20260905010540 | 76 | 0 | 0.0 | 0.0 | 0.00 | 0.17 | 0.17 | 87 | 1011.7 |
| 20260905010058 | 76 | 0 | 0.0 | 0.0 | 0.00 | 0.17 | 0.17 | 86 | 1011.6 |
| 20260905005537 | 76 | 0 | 0.0 | 0.0 | 0.00 | 0.17 | 0.17 | 86 | 1011.5 |
| 20260905005037 | 76 | 0 | 0.0 | 0.0 | 0.00 | 0.17 | 0.17 | 85 | 1011.4 |
| 20260905004608 | 76 | 0 | 0.0 | 0.0 | 0.00 | 0.17 | 0.17 | 85 | 1011.4 |
| 20260905004038 | 77 | 0 | 0.0 | 0.0 | 0.00 | 0.17 | 0.17 | 85 | 1011.3 |
| 20260905003539 | 77 | 0 | 0.0 | 0.0 | 0.00 | 0.17 | 0.17 | 84 | 1011.3 |
| 20260905003102 | 77 | 0 | 0.0 | 2.6 | 0.00 | 0.17 | 0.17 | 84 | 1011.2 |
| 20260905002537 | 77 | 0 | 0.0 | 2.6 | 0.00 | 0.17 | 0.17 | 84 | 1011.3 |
| 20260905002037 | 77 | 0 | 0.0 | 2.6 | 0.00 | 0.17 | 0.17 | 83 | 1011.2 |
| 20260905001606 | 77 | 0 | 0.0 | 0.0 | 0.00 | 0.17 | 0.17 | 84 | 1011.1 |
| 20260905001038 | 77 | 0 | 0.0 | 0.9 | 0.00 | 0.17 | 0.17 | 83 | 1011.5 |
| 20260905000538 | 78 | 0 | 0.0 | 0.9 | 0.00 | 0.17 | 0.17 | 83 | 1011.6 |
| 20260905000107 | 78 | 0 | 0.0 | 2.6 | 0.00 | 0.17 | 0.17 | 84 | 1011.7 |
| 20260904235536 | 78 | 258 | 0.9 | 2.6 | 0.00 | 0.17 | 0.17 | 82 | 1011.8 |
| 20260904235038 | 78 | 219 | 0.0 | 3.5 | 0.00 | 0.17 | 0.17 | 82 | 1011.8 |
| 20260904234608 | 78 | 238 | 0.0 | 3.5 | 0.00 | 0.17 | 0.17 | 81 | 1011.9 |
| 20260904234040 | 79 | 275 | 0.0 | 3.5 | 0.00 | 0.17 | 0.17 | 81 | 1011.9 |
| 20260904233539 | 79 | 243 | 0.9 | 3.5 | 0.00 | 0.17 | 0.17 | 80 | 1011.8 |
| 20260904233059 | 79 | 197 | 0.0 | 2.6 | 0.00 | 0.17 | 0.17 | 81 | 1011.7 |
| 20260904232538 | 79 | 194 | 0.0 | 2.6 | 0.00 | 0.17 | 0.17 | 81 | 1011.5 |
| 20260904232035 | 79 | 0 | 0.0 | 0.0 | 0.00 | 0.17 | 0.17 | 82 | 1011.4 |
| 20260904231603 | 79 | 0 | 0.0 | 1.7 | 0.00 | 0.17 | 0.17 | 81 | 1011.5 |
| 20260904231035 | 79 | 0 | 0.0 | 1.7 | 0.00 | 0.17 | 0.17 | 81 | 1011.4 |
| 20260904230537 | 79 | 219 | 0.0 | 1.7 | 0.00 | 0.17 | 0.17 | 81 | 1010.8 |
| 20260904230057 | 79 | 0 | 0.0 | 0.9 | 0.00 | 0.17 | 0.17 | 80 | 1010.9 |
| 20260904225536 | 80 | 0 | 0.0 | 1.7 | 0.00 | 0.17 | 0.17 | 81 | 1011.3 |
| 20260904225038 | 80 | 0 | 0.0 | 1.7 | 0.00 | 0.17 | 0.17 | 80 | 1011.3 |
| 20260904224602 | 80 | 0 | 0.0 | 2.6 | 0.00 | 0.17 | 0.17 | 81 | 1011.3 |
| 20260904224035 | 80 | 0 | 0.0 | 3.5 | 0.00 | 0.17 | 0.17 | 81 | 1011.3 |
| 20260904223538 | 80 | 0 | 0.9 | 4.3 | 0.00 | 0.17 | 0.17 | 80 | 1011.4 |
| 20260904223103 | 81 | 180 | 0.9 | 4.3 | 0.00 | 0.17 | 0.17 | 82 | 1011.6 |
| 20260904222539 | 81 | 212 | 0.9 | 3.5 | 0.00 | 0.17 | 0.17 | 82 | 1011.7 |
| 20260904222037 | 81 | 0 | 0.0 | 2.6 | 0.00 | 0.17 | 0.17 | 81 | 1011.5 |
| 20260904221604 | 82 | 0 | 0.0 | 2.6 | 0.00 | 0.17 | 0.17 | 81 | 1011.4 |
| 20260904221039 | 82 | 0 | 0.0 | 1.7 | 0.00 | 0.17 | 0.17 | 82 | 1011.5 |
| 20260904220538 | 82 | 208 | 0.0 | 0.9 | 0.00 | 0.17 | 0.17 | 81 | 1011.7 |
| 20260904220110 | 83 | 0 | 0.0 | 0.9 | 0.00 | 0.17 | 0.17 | 79 | 1011.9 |
| 20260904215537 | 83 | 0 | 0.0 | 1.7 | 0.00 | 0.17 | 0.17 | 76 | 1012.4 |
| 20260904215041 | 83 | 0 | 0.0 | 1.7 | 0.00 | 0.17 | 0.17 | 74 | 1012.9 |
| 20260904214600 | 84 | 5 | 0.0 | 1.7 | 0.00 | 0.17 | 0.17 | 72 | 1012.9 |
| 20260904214034 | 84 | 0 | 0.0 | 0.0 | 0.00 | 0.17 | 0.17 | 73 | 1012.9 |
| 20260904213537 | 84 | 0 | 0.0 | 0.9 | 0.00 | 0.17 | 0.17 | 74 | 1012.7 |
| 20260904213110 | 84 | 0 | 0.0 | 1.7 | 0.00 | 0.17 | 0.17 | 76 | 1012.4 |
| 20260904212538 | 84 | 0 | 0.0 | 1.7 | 0.00 | 0.17 | 0.17 | 75 | 1012.4 |
| 20260904212038 | 84 | 258 | 0.0 | 2.6 | 0.00 | 0.17 | 0.17 | 75 | 1012.0 |
| 20260904211609 | 84 | 0 | 0.0 | 5.2 | 0.00 | 0.17 | 0.17 | 76 | 1011.8 |
| 20260904211037 | 84 | 0 | 0.9 | 5.2 | 0.00 | 0.17 | 0.17 | 77 | 1012.0 |
| 20260904210538 | 85 | 352 | 0.9 | 2.6 | 0.00 | 0.17 | 0.17 | 80 | 1012.0 |
| 20260904205538 | 85 | 0 | 0.0 | 0.0 | 0.00 | 0.17 | 0.17 | 80 | 1011.4 |
| 20260904205037 | 85 | 0 | 0.0 | 0.0 | 0.00 | 0.17 | 0.17 | 80 | 1011.3 |
| 20260904204556 | 85 | 0 | 0.0 | 0.0 | 0.00 | 0.17 | 0.17 | 78 | 1011.3 |
| 20260904204037 | 86 | 0 | 0.0 | 0.0 | 0.00 | 0.17 | 0.17 | 79 | 1011.5 |
| 20260904203536 | 86 | 0 | 0.0 | 0.0 | 0.00 | 0.17 | 0.17 | 80 | 1011.6 |
| 20260904203103 | 86 | 0 | 0.0 | 0.0 | 0.00 | 0.17 | 0.17 | 75 | 1011.6 |
| 20260904202537 | 86 | 0 | 0.0 | 0.0 | 0.00 | 0.17 | 0.17 | 75 | 1011.5 |
| 20260904202037 | 87 | 0 | 0.0 | 0.0 | 0.00 | 0.17 | 0.17 | 75 | 1011.3 |
| 20260904201606 | 87 | 0 | 0.0 | 0.0 | 0.00 | 0.17 | 0.17 | 75 | 1011.5 |
| 20260904201038 | 88 | 0 | 0.0 | 0.0 | 0.00 | 0.17 | 0.17 | 73 | 1011.4 |
| 20260904200538 | 88 | 0 | 0.0 | 0.0 | 0.00 | 0.17 | 0.17 | 72 | 1011.2 |
| 20260904200122 | 89 | 0 | 0.0 | 0.0 | 0.00 | 0.17 | 0.17 | 71 | 1010.6 |
| 20260904195538 | 90 | 0 | 0.0 | 0.0 | 0.00 | 0.17 | 0.17 | 67 | 1010.9 |
| 20260904195039 | 90 | 0 | 0.0 | 0.0 | 0.00 | 0.17 | 0.17 | 68 | 1011.1 |
| 20260904194634 | 91 | 0 | 0.0 | 0.0 | 0.00 | 0.17 | 0.17 | 63 | 1011.4 |
| 20260904194038 | 92 | 0 | 0.0 | 0.9 | 0.00 | 0.17 | 0.17 | 61 | 1011.7 |
| 20260904193538 | 92 | 0 | 0.0 | 1.7 | 0.00 | 0.17 | 0.17 | 60 | 1011.7 |
| 20260904193103 | 93 | 0 | 0.0 | 2.6 | 0.00 | 0.17 | 0.17 | 59 | 1011.8 |
| 20260904192537 | 94 | 338 | 0.0 | 2.6 | 0.00 | 0.17 | 0.17 | 57 | 1011.7 |
| 20260904192038 | 95 | 274 | 0.0 | 2.6 | 0.00 | 0.17 | 0.17 | 57 | 1011.6 |
| 20260904191619 | 95 | 0 | 0.9 | 2.6 | 0.00 | 0.17 | 0.17 | 56 | 1011.8 |
| 20260904191040 | 95 | 47 | 0.9 | 4.3 | 0.00 | 0.17 | 0.17 | 54 | 1011.7 |
| 20260904190538 | 95 | 192 | 0.9 | 4.3 | 0.00 | 0.17 | 0.17 | 55 | 1011.7 |
| 20260904190058 | 95 | 212 | 0.9 | 4.3 | 0.00 | 0.17 | 0.17 | 53 | 1011.7 |
| 20260904185538 | 95 | 230 | 0.0 | 2.6 | 0.00 | 0.17 | 0.17 | 54 | 1011.7 |
| 20260904185038 | 95 | 0 | 0.0 | 2.6 | 0.00 | 0.17 | 0.17 | 55 | 1011.9 |
| 20260904184610 | 95 | 0 | 0.9 | 2.6 | 0.00 | 0.17 | 0.17 | 55 | 1011.9 |
| 20260904184038 | 95 | 0 | 0.9 | 2.6 | 0.00 | 0.17 | 0.17 | 55 | 1012.1 |
| 20260904183537 | 94 | 166 | 0.0 | 1.7 | 0.00 | 0.17 | 0.17 | 55 | 1012.2 |
| 20260904183100 | 94 | 179 | 0.0 | 0.9 | 0.00 | 0.17 | 0.17 | 57 | 1012.3 |
| 20260904182537 | 93 | 0 | 0.0 | 0.9 | 0.00 | 0.17 | 0.17 | 60 | 1012.4 |
| 20260904182036 | 92 | 0 | 0.0 | 2.6 | 0.00 | 0.17 | 0.17 | 60 | 1012.4 |
| 20260904181558 | 92 | 0 | 0.0 | 2.6 | 0.00 | 0.17 | 0.17 | 59 | 1012.5 |
| 20260904181037 | 93 | 352 | 0.9 | 2.6 | 0.00 | 0.17 | 0.17 | 58 | 1012.5 |
| 20260904180538 | 94 | 360 | 0.0 | 4.3 | 0.00 | 0.17 | 0.17 | 59 | 1012.6 |
| 20260904180105 | 94 | 304 | 0.9 | 4.3 | 0.00 | 0.17 | 0.17 | 56 | 1012.7 |
| 20260904175540 | 94 | 258 | 0.9 | 3.5 | 0.00 | 0.17 | 0.17 | 56 | 1012.8 |
| 20260904175037 | 94 | 269 | 0.0 | 3.5 | 0.00 | 0.17 | 0.17 | 58 | 1012.9 |
| 20260904174605 | 93 | 240 | 0.9 | 2.6 | 0.00 | 0.17 | 0.17 | 60 | 1012.9 |
| 20260904174037 | 92 | 0 | 0.0 | 2.6 | 0.00 | 0.17 | 0.17 | 60 | 1012.9 |
| 20260904173537 | 92 | 0 | 0.0 | 2.6 | 0.00 | 0.17 | 0.17 | 61 | 1013.0 |
| 20260904173106 | 91 | 170 | 0.0 | 1.7 | 0.00 | 0.17 | 0.17 | 61 | 1013.0 |
| 20260904172537 | 91 | 0 | 0.0 | 2.6 | 0.00 | 0.17 | 0.17 | 61 | 1013.1 |
| 20260904172038 | 91 | 13 | 0.9 | 2.6 | 0.00 | 0.17 | 0.17 | 59 | 1013.1 |
| 20260904171556 | 91 | 348 | 0.0 | 2.6 | 0.00 | 0.17 | 0.17 | 62 | 1013.1 |
| 20260904171037 | 90 | 350 | 0.9 | 2.6 | 0.00 | 0.17 | 0.17 | 62 | 1013.1 |
| 20260904170538 | 90 | 0 | 0.0 | 2.6 | 0.00 | 0.17 | 0.17 | 63 | 1013.1 |
| 20260904165541 | 90 | 303 | 0.0 | 2.6 | 0.00 | 0.17 | 0.17 | 64 | 1013.2 |
| 20260904165037 | 90 | 346 | 0.9 | 2.6 | 0.00 | 0.17 | 0.17 | 63 | 1013.3 |
| 20260904164600 | 90 | 0 | 0.0 | 2.6 | 0.00 | 0.17 | 0.17 | 65 | 1013.4 |
| 20260904164037 | 90 | 0 | 0.0 | 5.2 | 0.00 | 0.17 | 0.17 | 63 | 1013.4 |
| 20260904163537 | 90 | 352 | 1.7 | 5.2 | 0.00 | 0.17 | 0.17 | 63 | 1013.5 |
| 20260904163056 | 90 | 329 | 0.0 | 2.6 | 0.00 | 0.17 | 0.17 | 63 | 1013.5 |
| 20260904162537 | 90 | 0 | 0.9 | 2.6 | 0.00 | 0.17 | 0.17 | 62 | 1013.6 |
| 20260904162038 | 90 | 311 | 0.9 | 2.6 | 0.00 | 0.17 | 0.17 | 61 | 1013.6 |
| 20260904161555 | 90 | 337 | 0.0 | 1.7 | 0.00 | 0.17 | 0.17 | 66 | 1013.7 |
| 20260904161038 | 89 | 322 | 0.0 | 0.9 | 0.00 | 0.17 | 0.17 | 64 | 1013.7 |
| 20260904160541 | 89 | 0 | 0.0 | 2.6 | 0.00 | 0.17 | 0.17 | 65 | 1013.8 |
| 20260904160106 | 88 | 0 | 0.0 | 2.6 | 0.00 | 0.17 | 0.17 | 66 | 1013.7 |
| 20260904155534 | 88 | 322 | 0.0 | 2.6 | 0.00 | 0.17 | 0.17 | 66 | 1013.7 |
| 20260904155037 | 88 | 351 | 0.9 | 2.6 | 0.00 | 0.17 | 0.17 | 65 | 1013.6 |
| 20260904154620 | 88 | 350 | 0.0 | 2.6 | 0.00 | 0.17 | 0.17 | 67 | 1013.8 |
| 20260904154038 | 87 | 181 | 0.0 | 2.6 | 0.00 | 0.17 | 0.17 | 67 | 1013.7 |
| 20260904153538 | 86 | 306 | 0.0 | 3.5 | 0.00 | 0.17 | 0.17 | 71 | 1013.8 |
| 20260904153102 | 86 | 351 | 0.9 | 3.5 | 0.00 | 0.17 | 0.17 | 69 | 1013.8 |
| 20260904152538 | 86 | 350 | 0.9 | 3.5 | 0.00 | 0.17 | 0.17 | 68 | 1013.8 |
| 20260904152037 | 86 | 0 | 0.0 | 1.7 | 0.00 | 0.17 | 0.17 | 72 | 1013.8 |
| 20260904151608 | 85 | 334 | 0.0 | 1.7 | 0.00 | 0.17 | 0.17 | 74 | 1013.8 |
| 20260904151037 | 85 | 331 | 0.0 | 1.7 | 0.00 | 0.17 | 0.17 | 74 | 1013.8 |
| 20260904150539 | 85 | 346 | 0.0 | 1.7 | 0.00 | 0.17 | 0.17 | 73 | 1013.9 |
| 20260904150104 | 85 | 0 | 0.0 | 2.6 | 0.00 | 0.17 | 0.17 | 75 | 1014.0 |
| 20260904145538 | 85 | 0 | 0.0 | 2.6 | 0.00 | 0.17 | 0.17 | 76 | 1014.0 |
| 20260904145038 | 84 | 0 | 0.0 | 2.6 | 0.00 | 0.17 | 0.17 | 75 | 1013.9 |
| 20260904144601 | 84 | 0 | 0.0 | 0.0 | 0.00 | 0.17 | 0.17 | 76 | 1014.0 |
| 20260904144040 | 84 | 0 | 0.0 | 0.0 | 0.00 | 0.17 | 0.17 | 79 | 1014.1 |
| 20260904143539 | 83 | 0 | 0.0 | 0.0 | 0.00 | 0.17 | 0.17 | 80 | 1014.1 |
| 20260904143058 | 82 | 0 | 0.0 | 0.9 | 0.00 | 0.17 | 0.17 | 81 | 1014.2 |
| 20260904142538 | 82 | 0 | 0.0 | 1.7 | 0.00 | 0.17 | 0.17 | 82 | 1014.1 |
| 20260904142037 | 81 | 0 | 0.0 | 1.7 | 0.00 | 0.17 | 0.17 | 84 | 1014.1 |
| 20260904141621 | 81 | 0 | 0.0 | 0.9 | 0.00 | 0.17 | 0.17 | 84 | 1014.2 |
| 20260904141037 | 81 | 0 | 0.0 | 1.7 | 0.00 | 0.17 | 0.17 | 84 | 1014.2 |
| 20260904140538 | 81 | 0 | 0.0 | 1.7 | 0.00 | 0.17 | 0.17 | 84 | 1014.0 |
| 20260904140106 | 80 | 0 | 0.0 | 0.9 | 0.00 | 0.17 | 0.17 | 85 | 1014.0 |
| 20260904135538 | 80 | 0 | 0.0 | 0.9 | 0.00 | 0.17 | 0.17 | 86 | 1014.1 |
| 20260904135037 | 79 | 0 | 0.0 | 1.7 | 0.00 | 0.17 | 0.17 | 86 | 1014.1 |
| 20260904134619 | 79 | 0 | 0.0 | 1.7 | 0.00 | 0.17 | 0.17 | 87 | 1014.1 |
| 20260904134037 | 78 | 9 | 0.0 | 1.7 | 0.00 | 0.17 | 0.17 | 88 | 1014.1 |
| 20260904133537 | 78 | 0 | 0.0 | 1.7 | 0.00 | 0.17 | 0.17 | 89 | 1014.2 |
| 20260904133115 | 78 | 0 | 0.0 | 1.7 | 0.00 | 0.17 | 0.17 | 90 | 1014.2 |
| 20260904132538 | 77 | 0 | 0.0 | 1.7 | 0.00 | 0.17 | 0.17 | 90 | 1014.3 |
| 20260904132035 | 77 | 0 | 0.0 | 3.5 | 0.00 | 0.17 | 0.17 | 92 | 1014.2 |
| 20260904131614 | 77 | 0 | 0.9 | 3.5 | 0.00 | 0.17 | 0.17 | 91 | 1014.1 |
| 20260904131040 | 77 | 0 | 0.0 | 1.7 | 0.00 | 0.17 | 0.17 | 92 | 1014.1 |
| 20260904130538 | 77 | 0 | 0.0 | 0.0 | 0.00 | 0.17 | 0.17 | 92 | 1014.2 |
| 20260904130054 | 76 | 0 | 0.0 | 1.7 | 0.00 | 0.17 | 0.17 | 93 | 1014.3 |
| 20260904125538 | 76 | 0 | 0.0 | 1.7 | 0.00 | 0.17 | 0.17 | 93 | 1014.2 |
| 20260904125042 | 76 | 338 | 0.0 | 1.7 | 0.00 | 0.17 | 0.17 | 94 | 1014.2 |
| 20260904124600 | 76 | 0 | 0.0 | 0.0 | 0.00 | 0.17 | 0.17 | 94 | 1014.1 |
| 20260904124038 | 76 | 0 | 0.0 | 0.0 | 0.00 | 0.17 | 0.17 | 95 | 1014.1 |
| 20260904123537 | 75 | 0 | 0.0 | 0.0 | 0.00 | 0.17 | 0.17 | 95 | 1013.9 |
| 20260904123111 | 75 | 0 | 0.0 | 0.0 | 0.00 | 0.17 | 0.17 | 95 | 1013.8 |
| 20260904122538 | 75 | 0 | 0.0 | 0.0 | 0.00 | 0.17 | 0.17 | 95 | 1013.7 |
| 20260904122038 | 75 | 0 | 0.0 | 0.0 | 0.00 | 0.17 | 0.17 | 95 | 1013.6 |
| 20260904121559 | 75 | 0 | 0.0 | 0.0 | 0.00 | 0.17 | 0.17 | 96 | 1013.6 |
| 20260904121038 | 74 | 0 | 0.0 | 0.0 | 0.00 | 0.17 | 0.17 | 96 | 1013.5 |
| 20260904120538 | 74 | 0 | 0.0 | 0.0 | 0.00 | 0.17 | 0.17 | 97 | 1013.7 |
| 20260904120053 | 74 | 0 | 0.0 | 0.0 | 0.00 | 0.17 | 0.17 | 97 | 1013.6 |
| 20260904115538 | 73 | 0 | 0.0 | 0.0 | 0.00 | 0.17 | 0.17 | 97 | 1013.7 |
| 20260904115038 | 73 | 0 | 0.0 | 0.0 | 0.00 | 0.17 | 0.17 | 97 | 1013.6 |
| 20260904114600 | 73 | 0 | 0.0 | 0.0 | 0.00 | 0.17 | 0.17 | 97 | 1013.6 |
| 20260904114038 | 73 | 0 | 0.0 | 0.0 | 0.00 | 0.17 | 0.17 | 98 | 1013.6 |
| 20260904113538 | 73 | 0 | 0.0 | 0.0 | 0.00 | 0.17 | 0.17 | 98 | 1013.6 |
| 20260904113102 | 72 | 0 | 0.0 | 0.0 | 0.00 | 0.17 | 0.17 | 98 | 1013.5 |
| 20260904112538 | 72 | 0 | 0.0 | 0.0 | 0.00 | 0.17 | 0.17 | 98 | 1013.5 |
| 20260904112037 | 72 | 0 | 0.0 | 0.0 | 0.00 | 0.17 | 0.17 | 97 | 1013.6 |
| 20260904111602 | 72 | 0 | 0.0 | 0.0 | 0.00 | 0.17 | 0.17 | 97 | 1013.5 |
| 20260904111038 | 72 | 0 | 0.0 | 0.0 | 0.00 | 0.17 | 0.17 | 97 | 1013.5 |
| 20260904110538 | 72 | 0 | 0.0 | 0.0 | 0.00 | 0.17 | 0.17 | 97 | 1013.5 |
| 20260904110057 | 72 | 0 | 0.0 | 0.0 | 0.00 | 0.17 | 0.17 | 97 | 1013.4 |
| 20260904105538 | 71 | 0 | 0.0 | 0.0 | 0.00 | 0.17 | 0.17 | 97 | 1013.4 |
| 20260904105038 | 71 | 0 | 0.0 | 0.0 | 0.00 | 0.17 | 0.17 | 97 | 1013.2 |
| 20260904104603 | 71 | 0 | 0.0 | 0.0 | 0.00 | 0.17 | 0.17 | 97 | 1013.3 |
| 20260904104037 | 71 | 0 | 0.0 | 0.0 | 0.00 | 0.17 | 0.17 | 97 | 1013.3 |
| 20260904103538 | 71 | 0 | 0.0 | 0.0 | 0.00 | 0.17 | 0.17 | 97 | 1013.3 |
| 20260904103105 | 71 | 0 | 0.0 | 0.0 | 0.00 | 0.17 | 0.17 | 97 | 1013.2 |
| 20260904102538 | 71 | 0 | 0.0 | 0.0 | 0.00 | 0.17 | 0.17 | 97 | 1013.2 |
| 20260904102038 | 71 | 0 | 0.0 | 0.0 | 0.00 | 0.17 | 0.17 | 97 | 1013.1 |
| 20260904101600 | 71 | 0 | 0.0 | 0.0 | 0.00 | 0.17 | 0.17 | 97 | 1013.1 |
| 20260904101038 | 71 | 0 | 0.0 | 0.0 | 0.00 | 0.17 | 0.17 | 97 | 1013.1 |
| 20260904100538 | 72 | 0 | 0.0 | 0.0 | 0.00 | 0.17 | 0.17 | 97 | 1013.1 |
| 20260904100105 | 71 | 0 | 0.0 | 0.0 | 0.00 | 0.17 | 0.17 | 97 | 1013.0 |
| 20260904095538 | 72 | 0 | 0.0 | 0.0 | 0.00 | 0.17 | 0.17 | 97 | 1013.0 |
| 20260904095039 | 72 | 0 | 0.0 | 0.0 | 0.00 | 0.17 | 0.17 | 97 | 1013.0 |
| 20260904094603 | 72 | 0 | 0.0 | 0.0 | 0.00 | 0.17 | 0.17 | 96 | 1013.0 |
| 20260904094038 | 72 | 0 | 0.0 | 0.0 | 0.00 | 0.17 | 0.17 | 97 | 1012.9 |
| 20260904093538 | 72 | 0 | 0.0 | 0.0 | 0.00 | 0.17 | 0.17 | 97 | 1013.0 |
| 20260904093102 | 72 | 0 | 0.0 | 0.0 | 0.00 | 0.17 | 0.17 | 96 | 1013.1 |
| 20260904092537 | 72 | 0 | 0.0 | 0.0 | 0.00 | 0.17 | 0.17 | 96 | 1013.1 |
| 20260904092037 | 72 | 0 | 0.0 | 0.0 | 0.00 | 0.17 | 0.17 | 96 | 1013.1 |
| 20260904091555 | 72 | 0 | 0.0 | 0.0 | 0.00 | 0.17 | 0.17 | 96 | 1013.1 |
| 20260904091037 | 72 | 0 | 0.0 | 0.0 | 0.00 | 0.17 | 0.17 | 96 | 1013.1 |
| 20260904090537 | 72 | 0 | 0.0 | 0.0 | 0.00 | 0.17 | 0.17 | 96 | 1013.2 |
| 20260904085537 | 72 | 0 | 0.0 | 0.0 | 0.00 | 0.17 | 0.17 | 96 | 1013.2 |
| 20260904085041 | 72 | 0 | 0.0 | 0.0 | 0.00 | 0.17 | 0.17 | 97 | 1013.0 |
| 20260904084601 | 72 | 0 | 0.0 | 0.0 | 0.00 | 0.17 | 0.17 | 96 | 1013.2 |
| 20260904084037 | 72 | 0 | 0.0 | 0.0 | 0.00 | 0.17 | 0.17 | 96 | 1013.1 |
| 20260904083537 | 72 | 0 | 0.0 | 0.0 | 0.00 | 0.17 | 0.17 | 96 | 1013.1 |
| 20260904083056 | 72 | 0 | 0.0 | 0.0 | 0.00 | 0.17 | 0.17 | 96 | 1013.1 |
| 20260904082538 | 72 | 0 | 0.0 | 0.0 | 0.00 | 0.17 | 0.17 | 97 | 1013.2 |
| 20260904082034 | 72 | 0 | 0.0 | 0.0 | 0.00 | 0.17 | 0.17 | 97 | 1013.2 |
| 20260904081601 | 72 | 0 | 0.0 | 0.0 | 0.00 | 0.17 | 0.17 | 97 | 1013.2 |
| 20260904081038 | 72 | 0 | 0.0 | 0.0 | 0.00 | 0.17 | 0.17 | 96 | 1013.2 |
| 20260904080538 | 72 | 0 | 0.0 | 0.0 | 0.00 | 0.17 | 0.17 | 96 | 1013.1 |
| 20260904080107 | 72 | 0 | 0.0 | 0.0 | 0.00 | 0.17 | 0.17 | 96 | 1013.3 |
| 20260904075538 | 72 | 0 | 0.0 | 0.0 | 0.00 | 0.17 | 0.17 | 96 | 1013.3 |
| 20260904075038 | 72 | 0 | 0.0 | 0.0 | 0.00 | 0.17 | 0.17 | 96 | 1013.1 |
| 20260904074556 | 72 | 0 | 0.0 | 0.0 | 0.00 | 0.17 | 0.17 | 96 | 1012.9 |
| 20260904074035 | 72 | 0 | 0.0 | 0.0 | 0.00 | 0.17 | 0.17 | 96 | 1013.0 |
| 20260904073537 | 72 | 0 | 0.0 | 0.0 | 0.00 | 0.17 | 0.17 | 96 | 1012.8 |
| 20260904073103 | 72 | 0 | 0.0 | 0.0 | 0.00 | 0.17 | 0.17 | 96 | 1012.9 |
| 20260904072537 | 72 | 0 | 0.0 | 0.0 | 0.00 | 0.17 | 0.17 | 96 | 1012.8 |
| 20260904072038 | 72 | 0 | 0.0 | 0.0 | 0.00 | 0.17 | 0.17 | 96 | 1012.8 |
| 20260904071602 | 72 | 0 | 0.0 | 0.0 | 0.00 | 0.17 | 0.17 | 96 | 1012.7 |
| 20260904071041 | 72 | 0 | 0.0 | 0.0 | 0.00 | 0.17 | 0.17 | 95 | 1012.6 |
| 20260904070540 | 72 | 0 | 0.0 | 0.0 | 0.00 | 0.17 | 0.17 | 95 | 1012.6 |
| 20260904065537 | 72 | 0 | 0.0 | 0.9 | 0.00 | 0.17 | 0.17 | 95 | 1012.2 |
| 20260904065037 | 72 | 0 | 0.0 | 0.9 | 0.00 | 0.17 | 0.17 | 95 | 1012.3 |
| 20260904064621 | 72 | 0 | 0.0 | 0.9 | 0.00 | 0.17 | 0.17 | 95 | 1012.4 |
| 20260904064041 | 72 | 0 | 0.0 | 0.0 | 0.00 | 0.17 | 0.17 | 95 | 1012.4 |
| 20260904063538 | 72 | 0 | 0.0 | 0.0 | 0.00 | 0.17 | 0.17 | 95 | 1012.5 |
| 20260904063103 | 72 | 0 | 0.0 | 0.0 | 0.00 | 0.17 | 0.17 | 95 | 1012.7 |
| 20260904062537 | 72 | 0 | 0.0 | 0.0 | 0.00 | 0.17 | 0.17 | 94 | 1012.4 |
| 20260904062037 | 72 | 0 | 0.0 | 0.0 | 0.00 | 0.17 | 0.17 | 94 | 1012.5 |
| 20260904061601 | 73 | 0 | 0.0 | 0.0 | 0.00 | 0.17 | 0.17 | 95 | 1012.6 |
| 20260904061037 | 73 | 0 | 0.0 | 1.7 | 0.01 | 0.17 | 0.17 | 94 | 1012.8 |
| 20260904060537 | 73 | 0 | 0.0 | 3.5 | 0.13 | 0.17 | 0.17 | 94 | 1012.9 |
| 20260904060058 | 73 | 78 | 0.0 | 3.5 | 0.17 | 0.17 | 0.17 | 94 | 1012.7 |
| 20260904055537 | 73 | 66 | 0.0 | 3.5 | 0.17 | 0.17 | 0.17 | 94 | 1012.8 |
| 20260904055038 | 73 | 111 | 0.9 | 3.5 | 0.17 | 0.17 | 0.17 | 94 | 1012.9 |
| 20260904054603 | 73 | 0 | 0.0 | 2.6 | 0.17 | 0.17 | 0.17 | 94 | 1013.4 |
| 20260904054034 | 74 | 0 | 0.0 | 0.0 | 0.17 | 0.17 | 0.17 | 94 | 1013.5 |
| 20260904053537 | 74 | 0 | 0.0 | 0.0 | 0.17 | 0.17 | 0.17 | 93 | 1013.7 |
| 20260904053100 | 74 | 0 | 0.0 | 0.0 | 0.17 | 0.17 | 0.17 | 92 | 1013.9 |
| 20260904052541 | 74 | 0 | 0.0 | 0.9 | 0.17 | 0.17 | 0.17 | 92 | 1013.7 |
| 20260904052038 | 75 | 0 | 0.0 | 1.7 | 0.17 | 0.17 | 0.17 | 91 | 1014.2 |
| 20260904051605 | 75 | 0 | 0.0 | 2.6 | 0.17 | 0.17 | 0.17 | 90 | 1015.0 |
| 20260904051037 | 76 | 0 | 0.0 | 7.8 | 0.15 | 0.15 | 0.15 | 88 | 1015.0 |
| 20260904050537 | 77 | 273 | 0.9 | 7.8 | 0.04 | 0.04 | 0.04 | 86 | 1015.6 |
| 20260904050126 | 78 | 339 | 2.6 | 7.8 | 0.00 | 0.00 | 0.00 | 83 | 1015.4 |
| 20260904045535 | 78 | 360 | 1.7 | 5.2 | 0.00 | 0.00 | 0.00 | 81 | 1015.6 |